Weather History for Pasco, WA

Change the Weather History Date:

Wednesday, October 24, 2012

  Actual Average Record
Temperature  
Mean Temperature 41 °F 49 °F  
Max Temperature 49 °F 62 °F 77 °F (2007)
Min Temperature 32 °F 36 °F 22 °F (2002)
Degree Days  
Heating Degree Days 24 16  
Month to date heating degree days 320 285  
Since 1 July heating degree days 393 396  
Cooling Degree Days 0 0  
Month to date cooling degree days 0 0  
Year to date cooling degree days 611 709  
Moisture  
Dew Point 35 °F    
Average Humidity 77    
Maximum Humidity 92    
Minimum Humidity 61    
Precipitation  
Precipitation 0.03 in - 0.33 in (1996)
Month to date precipitation 1.03  
Year to date precipitation 11.03  
Snow  
Snow 0.00 in - - ()
Month to date snowfall 0.0  
Year to date snowfall 5.9  
Snow Depth 0.00 in    
Sea Level Pressure  
Sea Level Pressure 30.04 in    
Wind  
Wind Speed 6 mph (NW)    
Max Wind Speed 15 mph    
Max Gust Speed 22 mph    
Visibility 10 miles    
Events Rain    
T = Trace of Precipitation, MM = Missing Value Source: NWS Daily Summary

Daily Weather History Graph

Daily Weather History Graph

Search for Another Location

Airport:

Trip Planner

Search our weather history database for the weather conditions in past years. The results will help you decide how hot, cold, wet, or windy it might be!

Date:

Astronomy

Oct. 24, 2012 Rise Set
Actual Time 7:26 AM PDT 5:53 PM PDT
Civil Twilight 6:56 AM PDT 6:24 PM PDT
Nautical Twilight 6:21 AM PDT 6:59 PM PDT
Astronomical Twilight 5:46 AM PDT 7:34 PM PDT
Moon 3:25 PM PDT (10/24) 2:11 AM PDT (10/24)
Length of Visible Light 11h 28m
Length of Day
10h 26m
Waxing Gibbous, 77% of the Moon is Illuminated
Oct 24
Waxing Gibbous
Oct 29
Full
Nov 6
Last Quarter
Nov 13
New
Nov 20
First Quarter

Hourly Weather History & Observations

Time (PDT) Temp. Windchill Dew Point Humidity Pressure Visibility Wind Dir Wind Speed Gust Speed Precip Events Conditions
12:53 AM 33.1 °F - 30.9 °F 92% 29.95 in 10.0 mi Calm Calm - N/A   Clear
1:53 AM 33.1 °F - 32.0 °F 96% 29.95 in 10.0 mi Calm Calm - N/A   Clear
2:53 AM 32.0 °F 26.4 °F 30.9 °F 96% 29.95 in 10.0 mi NNW 5.8 mph - N/A   Clear
3:53 AM 30.9 °F 26.2 °F 30.0 °F 96% 29.95 in 10.0 mi North 4.6 mph - N/A   Scattered Clouds
4:53 AM 32.0 °F - 30.9 °F 96% 29.95 in 10.0 mi Calm Calm - N/A   Overcast
5:53 AM 34.0 °F - 33.1 °F 96% 29.96 in 10.0 mi Calm Calm - N/A   Overcast
6:53 AM 34.0 °F - 33.1 °F 96% 29.96 in 10.0 mi Calm Calm - N/A   Overcast
7:53 AM 36.0 °F 32.1 °F 35.1 °F 97% 29.98 in 10.0 mi WSW 4.6 mph - N/A   Overcast
8:53 AM 37.9 °F - 36.0 °F 93% 29.99 in 10.0 mi Calm Calm - N/A   Mostly Cloudy
9:53 AM 39.0 °F - 36.0 °F 89% 30.01 in 10.0 mi Calm Calm - 0.00 in Rain Light Rain
10:53 AM 39.9 °F - 37.0 °F 89% 30.01 in 10.0 mi Calm Calm - 0.00 in Rain Light Rain
11:19 AM 41.0 °F - 37.4 °F 87% 30.01 in 10.0 mi Calm Calm - 0.00 in   Overcast
11:28 AM 39.2 °F 37.0 °F 37.4 °F 93% 30.01 in 10.0 mi WSW 3.5 mph - 0.00 in   Overcast
11:49 AM 41.0 °F 37.1 °F 37.4 °F 87% 30.00 in 10.0 mi NW 5.8 mph - 0.00 in   Overcast
11:53 AM 41.0 °F 37.1 °F 37.0 °F 86% 30.01 in 10.0 mi NW 5.8 mph - 0.00 in   Overcast
12:53 PM 42.1 °F 40.2 °F 37.9 °F 85% 30.02 in 10.0 mi WNW 3.5 mph - N/A   Overcast
2:53 PM 46.0 °F 43.9 °F 39.0 °F 76% 30.04 in 10.0 mi Variable 4.6 mph - N/A   Mostly Cloudy
3:53 PM 46.9 °F - 39.0 °F 74% 30.05 in 10.0 mi NNW 3.5 mph - N/A   Partly Cloudy
4:00 PM 46.4 °F 43.5 °F 39.2 °F 76% 30.04 in 10.0 mi NNW 5.8 mph - N/A   Mostly Cloudy
4:53 PM 46.0 °F 42.5 °F 39.9 °F 79% 30.07 in 10.0 mi WNW 6.9 mph - N/A   Scattered Clouds
5:53 PM 44.1 °F 40.8 °F 39.0 °F 82% 30.08 in 10.0 mi WNW 5.8 mph - N/A   Partly Cloudy
6:53 PM 39.9 °F 36.7 °F 37.0 °F 89% 30.10 in 10.0 mi NW 4.6 mph - N/A   Clear
7:53 PM 39.0 °F - 36.0 °F 89% 30.13 in 10.0 mi Calm Calm - N/A   Mostly Cloudy
8:01 PM 39.2 °F - 35.6 °F 87% 30.12 in 10.0 mi Calm Calm - N/A   Mostly Cloudy
8:29 PM 37.4 °F 34.9 °F 35.6 °F 93% 30.13 in 10.0 mi NW 3.5 mph - N/A   Scattered Clouds
8:53 PM 36.0 °F 33.3 °F 34.0 °F 93% 30.15 in 10.0 mi NW 3.5 mph - N/A   Partly Cloudy
9:53 PM 37.0 °F - 36.0 °F 96% 30.17 in 10.0 mi Calm Calm - N/A   Clear
10:53 PM 34.0 °F - 33.1 °F 96% 30.18 in 8.0 mi Calm Calm - N/A   Clear
11:53 PM 33.1 °F - 32.0 °F 96% 30.20 in 7.0 mi Calm Calm - N/A   Mostly Cloudy